Regional Weather Roundup
Issued by NWS Wakefield, VA

Home | Current Version | Previous Version | Text Only | Print | Product List | Glossary Off
Versions: 1 2 3 4 5 6 7 8 9 10 11 12 13 14 15 16 17 18 19 20 21 22 23 24 25 26 27

000
ASUS41 KAKQ 152115
RWRAKQ

REGIONAL WEATHER ROUNDUP
NATIONAL WEATHER SERVICE WAKEFIELD VA
400 PM EST FRI DEC 15 2017

Note: "fair" indicates few or no clouds below 12,000 feet with no
significant weather and/or obstructions to visibility. * = Denotes
station may not report precipitation (e.g., rain,snow,etc.),
thunder or fog.

VAZ042-051-052>054-056-152200-
NORTHERN VIRGINIA

CITY           SKY/WX    TMP DP  RH WIND       PRES   REMARKS
WASH NATIONAL  FLURRIES  29  25  85 CALM      29.96S
DULLES         LGT SNOW  27  25  92 CALM      29.94S FOG
FORT BELVOIR   CLOUDY    28  23  82 CALM      29.95S
QUANTICO       CLOUDY    29  25  85 CALM      29.96S
FREDERICKSBRG* CLOUDY    31  25  78 CALM      29.94F
STAFFORD*      CLOUDY    30  26  85 CALM      29.98F
WARRENTON      CLOUDY    30  23  75 CALM      29.93S
CULPEPER*      CLOUDY    30  24  77 CALM      29.94F
MANASSAS*      CLOUDY    28  25  88 NW5       29.95S
LEESBURG*      CLOUDY    30  27  86 CALM      29.93F
WINCHESTER     CLOUDY    30  19  64 SW3       29.90S
FRONT ROYAL*   CLOUDY    30  21  69 MISG      29.89F
LURAY*         CLOUDY    32  27  80 S3        29.89S
$$

VAZ048-049-060>072-079>083-152200-
CENTRAL AND SOUTH CENTRAL VIRGINIA

CITY           SKY/WX    TMP DP  RH WIND       PRES   REMARKS
RICHMOND       MOCLDY    36  19  50 NW12      29.93R
CHESTERFIELD*  NOT AVBL
PETERSBURG*    CLOUDY    36  19  51 W5        29.93F
HANOVER        CLOUDY    33  18  53 W6        29.94S
TAPPAHANNOCK*  CLOUDY    32  19  58 NW7       29.94S
QUINTON*       CLOUDY    33  20  60 NW3       29.93R
CHARLOTTSVILLE MOCLDY    32  22  66 S7        29.90F
GORDONSVILLE*  CLOUDY    31  23  72 CALM      29.91F
ORANGE*        CLOUDY    30  23  74 CALM      29.92S
LOUISA*        CLOUDY    31  19  61 S3        29.96F
BUMPASS*       CLOUDY    31  19  60 CALM      29.92F
FARMVILLE*     CLOUDY    35  22  59 CALM      29.92F
CREWE*         FAIR      34  20  57 W5        29.92F
FORT PICKETT*  NOT AVBL
CHASE CITY*    FAIR      36  22  58 W3        29.93S
CLARKSVILLE*   FAIR      36  25  64 W3        29.94S
SOUTH HILL*    CLOUDY    36  25  64 W5        29.98F
LAWRENCEVILLE* FAIR      36  22  56 W5        29.92F
EMPORIA*       CLOUDY    36  25  64 W8        29.95R
$$

VAZ088>098-152200-
SOUTHEAST VIRGINIA

CITY           SKY/WX    TMP DP  RH WIND       PRES   REMARKS
NORFOLK        CLOUDY    44  34  67 NW9       29.88R
VIRGINIA BEACH CLOUDY    43  35  73 NW12      29.86R
NORFOLK NAVAL  CLOUDY    42  31  64 NW17G28   29.90R
WEST POINT*    CLOUDY   N/A N/A N/A NW5       29.94R
SALUDA*        CLOUDY    34  26  72 NW10G18   29.91R
NEWPORT NEWS   CLOUDY    39  29  67 W12       29.89R
LANGLEY AFB    CLOUDY    41  31  68 NW8       29.88R
FORT EUSTIS    CLOUDY    38  28  65 NW10      29.88R
WILLIAMSBURG*  CLOUDY    37  27  65 NW14      29.92R
HR EXEC AP*    FAIR      43  33  68 W9G18     29.90R
FRANKLIN*      CLOUDY    40  29  65 W12       29.92S
US460-WAKEFLD  CLOUDY    38  24  57 W6        29.92R
$$

VAZ020-022-025-037-045-152200-
WEST CENTRAL AND SOUTHWEST VIRGINIA

CITY           SKY/WX    TMP DP  RH WIND       PRES   REMARKS
STAUNTON*      CLOUDY    33  24  70 S8        29.88F
WAYNESBORO*    CLOUDY    32  24  71 SW7       29.87S
HOT SPRINGS VA CLOUDY    23  17  77 W20G29    29.77S WCI   8
LYNCHBURG      CLOUDY    37  22  54 VRB5      29.91F
DANVILLE       MOCLDY    38  25  59 SW6       29.94F
SOUTH BOSTON*  FAIR      37  22  54 SW5       29.94S
MARTINSVILLE   CLOUDY    39  24  53 NW9       29.95R
ROANOKE        MOCLDY    37  21  52 NW14G23   29.93R
BLACKSBURG     CLOUDY    33  22  64 NW13G18   29.92F WCI  24
DUBLIN*        CLOUDY    33  22  63 NW13      29.93S WCI  24
MARION*        CLOUDY    32  21  64 W17G24    29.93R WCI  21
HILLSVILLE*    CLOUDY    30  21  69 W14G25    29.88R WCI  20
RICHLANDS*     CLOUDY    30  19  62 W12G23    29.95R WCI  20
WISE*          CLOUDY    30  21  69 W7        29.98R
ABINGDON*      CLOUDY    33  23  65 W12       29.99R WCI  25
$$

MDZ021>025-VAZ099-100-152200-
SOUTHERN MARYLAND AND THE DELMARVA PENINSULA

CITY           SKY/WX    TMP DP  RH WIND       PRES   REMARKS
PATUXENT RIVER FLURRIES  31  27  85 NW16      29.93R WCI  20
BAY BRIDGE APT LGT SNOW  28  25  86 MISG      29.95R VSB 3/4
LEONARDTOWN    CLOUDY    30  25  80 NW6       29.94R
DOVER          LGT SNOW  25  25 100 NW12      29.93R FOG     WCI  14
GEORGETOWN     CLOUDY    32  25  75 N9        29.88F
EASTON         LGT SNOW  28  21  74 N8        29.97R
CAMBRIDGE      CLOUDY    28  25  86 N12G17    29.91R HAZE    WCI  18
SALISBURY      CLOUDY    34  28  79 N8        29.87S
OCEAN CITY     CLOUDY    41  34  76 N8        29.85F
WALLOPS ISLAND CLOUDY    42  36  79 N7        29.85R
ACCOMACK*      CLOUDY    39  33  78 NW12      29.86R
$$

NCZ012>017-030>032-152200-
NORTH CENTRAL AND EASTERN NORTH CAROLINA

CITY           SKY/WX    TMP DP  RH WIND       PRES   REMARKS
ROANOKE RAPIDS FAIR      41  28  60 W7        29.93S
RALEIGH        CLOUDY    41  27  57 VRB5      29.95R
ELIZABETH CITY PTCLDY    52  41  66 W20       29.87R
AHOSKIE*       MOCLDY    42  30  62 NW5       29.92R
EDENTON*       PTCLDY    54  39  57 NW10      29.88R
CURRITUCK*     PTCLDY    54  39  57 W13       29.85R
KILL DEVIL HLS PTCLDY    55  35  47 W10G18    29.82F
MANTEO         PTCLDY    56  37  49 W9        29.83F
CAPE HATTERAS  CLOUDY    57  42  57 W12G22    29.86F
TARBORO*       NOT AVBL
GOLDSBORO      CLOUDY    51  35  53 W14       29.90R
WASHINGTON     CLOUDY    54  36  49 W8        29.88S
GREENVILLE     CLOUDY    52  34  50 NW7       29.93R
NEW BERN       MOCLDY    56  38  50 SW6       29.89S
WILMINGTON     CLOUDY    59  40  49 W8        29.91S
$$

VAZ048-152200-
ELSEWHERE

CITY           SKY/WX    TMP DP  RH WIND       PRES   REMARKS
HARRISBURG PA  CLOUDY    26  22  84 CALM      29.91F FOG
BALTIMORE      LGT SNOW  26  25  96 NW3       29.94R VSB 1
ANNAPOLIS      SNOW      28  28 100 NW6       29.95R VSB 1/2
ANDREWS AFB    LGT SNOW  26  23  89 CALM      29.92F FOG
PHILADELPHIA   SNOW      25  22  88 NW3       29.96R VSB 1/2
HENDERSON NC   CLOUDY    35  23  62 W5        29.94S
GREENSBORO     CLOUDY    39  27  62 SW7       29.93R
ROCKY MOUNT    MOCLDY    45  30  55 W9        29.95R
$$

VAZ100-152200-
MARINE

STATION/POSITION TIME  TEMP    WIND        PRES    WAVE   SWELL
                       AIR SEA DIR/SP/G            HT/PER HT/PER
                 (UTC) (F)     (DEG/KT/KT) (MB)    (FT/S) (FT/S)
BRANDYWINE LGT   2042   30      10/ 17/ 18 1012.4F
CAPE MAY NJ      2048   29 44   10/  8/ 12 1011.5F
LEWES DE         2048   33 40   20/ 12/ 15 1011.7F
15NM E FENWICK I 2050   44 52   20/ 10/ 12 1011.0F   2/ 3   2/ 5
OCEAN-CITY-INLET 2048   42 43   30/  6/ 10 1011.0F
WACHAPREAGUE VA  2048   43 38  300/  4/ 10 1010.4R
THOMAS POINT MD  2100   27 44  340/  7/  8   N/A
GOOSES REEF MD   2100   30 45   10/ 16/ 17 1014.2    2/ 3
COVE POINT MD    2048   30     340/ 19/ 23 1014.0R
SOLOMONS ISLAND  2048   30 45  320/ 11/ 15 1013.4R
BISHOPS HEAD MD  2048   31 35  330/ 11/ 15 1012.8R
PINEY POINT MD   2036          340/ 14/ 16   N/A
POTOMAC MD       2100   34 46  320/ 14/ 16 1012.3    1/ 2
CAMBRIDGE MD     2042   28 39              1013.6R
LEWISETTA VA     2048   34 40  330/ 10/ 12 1013.2R
RAPPAHANNOCK LGT 2048          320/ 18/ 22 1012.0R
STINGRAY PT      2100   37 45  340/ 14/ 17 1012.5    2/ 3
YORK RVR RNG VA  2048   39     330/ 12/ 15 1012.5R
YORKTOWN VA      2048   38 46  320/ 13/ 16 1011.9R
JAMESTOWN VA     2100      45  330/ 14/ 17   N/A
DOMINION TERM VA 2048   41     330/ 14/ 21 1012.2R
KIPTOPEKE VA     2048      44  330/ 22/ 25   N/A
CAPE HENRY VA    2048   41     320/ 21/ 24   N/A
WILLOUBY STN VA  2048          300/ 18/ 21 1011.9R
S CRANEY ISL VA  2048   41     300/ 11/ 15 1011.5R
CAPE HENRY BUOY  2100      53                N/A     3/ 4
1ST LANDING BUOY 2100   41 47  350/ 19/ 23 1011.3    3/ 3
CAPE CHARLES BUO 2051      51                N/A     3/ 5
64NM E OF VA BCH 2050   58 60  240/ 23/ 29 1008.7F   4/ 6   2/ 7
DUCK PIER NC     2048   53 54  260/ 16/ 20 1009.7F
44100 DUCK FRF   2045      55                N/A     3/ 6
44056 DUCK FRF   2100      55                N/A     3/ 6
OREGON INLET NC  2042   51 49  200/ 11/ 13 1010.3F
HATTERAS NC      2048   56 55  240/ 10/ 12 1011.1F
DIAMOND SHLS NC  2100   63 73  250/ 23/ 29 1011.4
CAPE LOOKOUT NC  2100          240/ 12/ 16 1012.4F
$$




USA.gov is the U.S. government's official web portal to all federal, state and local government web resources and services.